Regional Weather Roundup
Issued by NWS

Home | Current Version | Previous Version | Graphics & Text | Print | Product List | Glossary On
Versions: 1 2 3 4 5 6 7 8 9 10 11 12 13 14 15 16 17 18 19 20 21 22 23 24 25 26 27 28 29 30 31 32 33 34 35 36 37 38 39 40 41 42 43 44 45 46 47 48 49 50
000
ASUS43 KDMX 200801
RWRIA

WEATHER ROUNDUP FOR IOWA
NATIONAL WEATHER SERVICE DES MOINES IA
300 AM CDT FRI APR 20 2018

NOTE: "FAIR" INDICATES FEW OR NO CLOUDS BELOW 12,000 FEET WITH NO
SIGNIFICANT WEATHER AND/OR OBSTRUCTIONS TO VISIBILITY.

* - THESE STATIONS ARE NOT NWS STATIONS...THUS NOT UNDER NWS
QUALITY CONTROL.  THEY ALSO DO NOT REPORT WEATHER SUCH
AS PRECIPITATION OR FOG.

IAZ001>003-012>014-020>022-031>034-043>046-200900-
   NORTHWEST IOWA

CITY           SKY/WX    TMP DP  RH WIND       PRES   REMARKS
CARROLL *      CLOUDY    28  28 100 CALM      30.46S
CHEROKEE *     CLOUDY    27  22  80 CALM      30.45F
DENISON *      CLOUDY    32  27  80 E6        30.46S WCI  26
LE MARS *      CLOUDY    32  23  69 CALM      30.44F
ORANGE CITY *  CLOUDY    30  21  69 E5        30.44S WCI  25
SHELDON *      CLOUDY    28  25  86 SE6       30.43S WCI  22
SIOUX CITY     PTCLDY    30  23  75 E7        30.43F WCI  23
SPENCER        CLOUDY    23  17  78 CALM      30.46S
STORM LAKE *   CLOUDY    30  23  74 SE8       30.44F WCI  23
$$

IAZ055>058-069>071-079>083-090>094-200900-
   SOUTHWEST IOWA

CITY           SKY/WX    TMP DP  RH WIND       PRES   REMARKS
ATLANTIC *     CLOUDY    32  27  80 N3        30.44S
AUDUBON *      CLOUDY    28  25  86 CALM      30.45F
CLARINDA *     CLOUDY    37  27  65 CALM      30.46S
COUNCIL BLFS * PTCLDY    37  28  70 E9        30.42S WCI  31
CRESTON *      CLOUDY    32  25  74 E10       30.45S WCI  24
HARLAN  *      CLOUDY    34  28  80 E5        30.47F WCI  30
LAMONI         CLOUDY    34  25  69 NE6       30.43F WCI  29
RED OAK *      PTCLDY    36  27  69 NE5       30.44S WCI  32
SHENANDOAH *   CLOUDY    37  27  65 E6        30.43F WCI  33
$$

IAZ047>049-059>061-072>074-084-200900-
   CENTRAL IOWA

CITY           SKY/WX    TMP DP  RH WIND       PRES   REMARKS
AMES           CLOUDY    31  25  78 CALM      30.47F
ANKENY *       CLEAR     27  25  93 CALM      30.48F
BOONE *        CLOUDY    32  27  80 E5        30.45F WCI  27
CHARITON *     CLEAR     34  25  69 NE6       30.45F WCI  29
DES MOINES     CLOUDY    36  24  62 E5        30.46F WCI  32
GRINNELL*      CLOUDY    33  24  70 NE5       30.48S WCI  29
KNOXVILLE *    CLEAR     36  23  60 NE5       30.45F WCI  32
MARSHALLTOWN   CLOUDY    28  25  88 CALM      30.47S
NEWTON *       CLOUDY    32  25  74 NE6       30.47F WCI  26
PELLA *        CLOUDY    32  25  74 NE3       30.48F
$$

IAZ004>006-015-016-023>025-035-036-200900-
   NORTH CENTRAL IOWA

CITY           SKY/WX    TMP DP  RH WIND       PRES   REMARKS
ALGONA *       CLOUDY    23  19  86 CALM      30.46F
CLARION *      PTCLDY    27  25  93 E5        30.47S WCI  21
ESTHERVILLE    CLOUDY    18  15  88 CALM      30.46S
FORT DODGE *   CLEAR     27  25  92 CALM      30.47S
MASON CITY     CLOUDY    21  17  84 CALM      30.49S
FOREST CITY *  FOG       21  21 100 CALM      30.48S VSB 1/4
WEBSTER CITY * CLOUDY    30  28  93 CALM      30.45S
IOWA FALLS *   FAIR      31  26  80 CALM      30.48S
$$

IAZ007>011-017>019-026>030-037>042-050>054-066-200900-
   NORTHEAST IOWA

CITY           SKY/WX    TMP DP  RH WIND       PRES   REMARKS
CEDAR RAPIDS   FAIR      28  23  81 N8        30.46S WCI  20
CHARLES CITY * FAIR      27  27 100 N3        30.48S
CLINTON *      FAIR      29  26  89 NW8       30.48R WCI  21
DECORAH *      FAIR      28  23  80 CALM      30.47R
DUBUQUE        FAIR      31  22  69 CALM      30.47R
MONTICELLO *   FAIR      27  27 100 CALM      30.47S
OELWEIN *      FAIR      28  28 100 N5        30.48R WCI  23
WATERLOO       FAIR      24  22  91 CALM      30.48R
$$

IAZ064-065-067-068-078-200900-
   EAST CENTRAL IOWA

CITY           SKY/WX    TMP DP  RH WIND       PRES   REMARKS
DAVENPORT      FAIR      31  25  78 NW6       30.49R WCI  25
IOWA CITY      FAIR      29  23  78 CALM      30.49R
MT. PLEASANT * CLEAR     32  25  74 NE6       30.46S WCI  26
MUSCATINE *    FAIR      32  27  80 CALM      30.48S
QUAD CITIES    FAIR      27  24  89 CALM      30.47R
$$

IAZ062-063-075>077-085>089-095>099-200900-
   SOUTHEAST IOWA

CITY           SKY/WX    TMP DP  RH WIND       PRES   REMARKS
BURLINGTON     CLEAR     37  25  61 NE3       30.46S
FAIRFIELD *    CLEAR     30  23  74 NE7       30.46R WCI  23
FORT MADISON * CLEAR     37  27  65 NE3       30.46S
KEOKUK *       CLEAR     37  27  65 NE5       30.45S WCI  34
OSKALOOSA *    FAIR      29  24  79 NE7       30.47S WCI  22
CENTERVILLE *    N/A     32  28  86 CALM      30.47S
OTTUMWA        CLEAR     27  21  78 N5        30.47R WCI  22
WASHINGTON *   CLOUDY    32  27  80 NE6       30.48R WCI  26
$$

ABBREVIATIONS USED IN REMARKS
   TC - TEMPERATURES IN CELSIUS
  WCI - WIND CHILL INDEX
   HX - HEAT INDEX
  VSB - VISIBILITY
$$




USA.gov is the U.S. government's official web portal to all federal, state and local government web resources and services.